Location: Aldenham
(51.6667°N, 0.3500°W)
Time: 06:06:37
(UTC+00:00)

Cosmos 1190 Rocket - Pass Details

Date: 18 November 2025
Orbit: 752 x 775 km, 74.1° (Epoch: 10 December)

Event Time Altitude Azimuth Distance (km) Brightness Sun altitude
Rises 17:54:31 0° 189° (S) 3,241 7.5 -16.3°
Reaches altitude 10° 17:56:55 10° 185° (S) 2,319 6.7 -16.7°
Maximum altitude 18:02:04 56° 108° (ESE) 920 4.1 -17.5°
Enters shadow 18:05:25 22° 38° (NE) 1,674 5.3 -18.0°
